• en Belgique
  • Liste des pays
  • À 7 jours
  • Température de l'eau
  • Carte satellitaire
  • Carte météo
  • Widgets météo
  • user-avatar
    Se connecter

    Météo par heure à Newcastle

    Ce jour, 25 Juin, Dimanche

    Heure Température Précipitation Vent Pression Humidité
    00:00 +9°C° 0 mm 3 m/s 762 mmHg 79%
    01:00 +9°C° 0 mm 3 m/s 762 mmHg 80%
    02:00 +8°C° 0 mm 3 m/s 762 mmHg 82%
    03:00 +8°C° 0 mm 3 m/s 762 mmHg 83%
    04:00 +8°C° 0 mm 3 m/s 762 mmHg 85%
    05:00 +8°C° 0 mm 3 m/s 763 mmHg 85%
    06:00 +8°C° 0 mm 3 m/s 763 mmHg 85%
    07:00 +8°C° 0 mm 3 m/s 763 mmHg 86%
    08:00 +10°C° 0 mm 3 m/s 763 mmHg 77%
    09:00 +12°C° 0 mm 3 m/s 763 mmHg 68%
    10:00 +16°C° 0 mm 3 m/s 763 mmHg 59%
    11:00 +17°C° 0 mm 3 m/s 762 mmHg 55%
    12:00 +18°C° 0 mm 3 m/s 762 mmHg 50%
    13:00 +20°C° 0 mm 3 m/s 761 mmHg 45%
    14:00 +19°C° 0 mm 3 m/s 761 mmHg 52%
    15:00 +18°C° 0 mm 3 m/s 761 mmHg 58%
    16:00 +18°C° 0 mm 2 m/s 761 mmHg 64%
    17:00 +16°C° 0 mm 3 m/s 762 mmHg 69%
    18:00 +13°C° 0 mm 3 m/s 762 mmHg 73%
    19:00 +11°C° 0 mm 3 m/s 762 mmHg 77%
    20:00 +11°C° 0 mm 3 m/s 763 mmHg 78%
    21:00 +11°C° 0 mm 4 m/s 763 mmHg 78%
    22:00 +10°C° 0 mm 4 m/s 763 mmHg 79%
    23:00 +10°C° 0 mm 4 m/s 763 mmHg 81%

    Demain, 26 Juin, Lundi

    Heure Température Précipitation Vent Pression Humidité
    00:00 +8°C° 0 mm 4 m/s 763 mmHg 83%
    01:00 +9°C° 0 mm 3 m/s 763 mmHg 85%
    02:00 +8°C° 0 mm 4 m/s 763 mmHg 86%
    03:00 +7°C° 0 mm 4 m/s 763 mmHg 87%
    04:00 +7°C° 0 mm 4 m/s 763 mmHg 87%
    05:00 +7°C° 0 mm 4 m/s 764 mmHg 88%
    06:00 +7°C° 0 mm 4 m/s 764 mmHg 88%
    07:00 +7°C° 0 mm 4 m/s 765 mmHg 88%
    08:00 +10°C° 0 mm 4 m/s 765 mmHg 78%
    09:00 +12°C° 0 mm 3 m/s 765 mmHg 68%
    10:00 +14°C° 0 mm 3 m/s 766 mmHg 58%
    11:00 +16°C° 0 mm 3 m/s 765 mmHg 53%
    12:00 +17°C° 0 mm 3 m/s 765 mmHg 48%
    13:00 +18°C° 0 mm 3 m/s 765 mmHg 43%
    14:00 +17°C° 0 mm 2 m/s 765 mmHg 50%
    15:00 +16°C° 0 mm 2 m/s 765 mmHg 56%
    16:00 +16°C° 0 mm 2 m/s 765 mmHg 62%
    17:00 +13°C° 0 mm 2 m/s 766 mmHg 71%
    18:00 +9°C° 0 mm 2 m/s 766 mmHg 80%
    19:00 +8°C° 0 mm 1 m/s 767 mmHg 89%
    20:00 +7°C° 0 mm 1 m/s 767 mmHg 91%
    21:00 +7°C° 0 mm 1 m/s 768 mmHg 93%
    22:00 +6°C° 0 mm 1 m/s 768 mmHg 94%
    23:00 +7°C° 0 mm 1 m/s 768 mmHg 90%

    Après-demain, 27 Juin, Mardi

    Heure Température Précipitation Vent Pression Humidité
    00:00 +7°C° 0 mm 2 m/s 768 mmHg 85%
    01:00 +7°C° 0 mm 2 m/s 768 mmHg 80%
    02:00 +7°C° 0 mm 2 m/s 768 mmHg 82%
    03:00 +7°C° 0 mm 2 m/s 768 mmHg 85%
    04:00 +6°C° 0 mm 2 m/s 768 mmHg 87%
    05:00 +6°C° 0 mm 2 m/s 768 mmHg 88%
    06:00 +6°C° 0 mm 2 m/s 768 mmHg 90%
    07:00 +6°C° 0 mm 2 m/s 769 mmHg 91%
    08:00 +9°C° 0,1 mm 2 m/s 769 mmHg 82%
    09:00 +13°C° 0,1 mm 2 m/s 769 mmHg 72%
    10:00 +16°C° 0,1 mm 2 m/s 769 mmHg 63%
    11:00 +16°C° 0 mm 1 m/s 768 mmHg 60%
    12:00 +18°C° 0 mm 1 m/s 768 mmHg 58%
    13:00 +19°C° 0 mm 1 m/s 767 mmHg 55%
    14:00 +18°C° 0 mm 1 m/s 767 mmHg 60%
    15:00 +18°C° 0 mm 1 m/s 767 mmHg 65%
    16:00 +16°C° 0 mm 1 m/s 766 mmHg 71%
    17:00 +15°C° 0 mm 1 m/s 767 mmHg 77%
    18:00 +13°C° 0 mm 1 m/s 767 mmHg 83%
    19:00 +12°C° 0 mm 1 m/s 767 mmHg 88%
    20:00 +11°C° 0 mm 1 m/s 767 mmHg 91%
    21:00 +11°C° 0 mm 1 m/s 767 mmHg 93%
    22:00 +9°C° 0 mm 2 m/s 767 mmHg 95%
    23:00 +9°C° 0 mm 2 m/s 767 mmHg 96%

    28 Juin, Mercredi

    Heure Température Précipitation Vent Pression Humidité
    00:00 +8°C° 0 mm 2 m/s 767 mmHg 97%
    01:00 +8°C° 0 mm 2 m/s 766 mmHg 97%
    02:00 +8°C° 0 mm 2 m/s 766 mmHg 97%
    03:00 +8°C° 0 mm 2 m/s 766 mmHg 97%
    04:00 +8°C° 0 mm 2 m/s 766 mmHg 97%
    05:00 +8°C° 0,1 mm 2 m/s 766 mmHg 96%
    06:00 +8°C° 0,1 mm 2 m/s 766 mmHg 95%
    07:00 +8°C° 0,1 mm 2 m/s 766 mmHg 94%
    08:00 +10°C° 0 mm 2 m/s 766 mmHg 85%
    09:00 +14°C° 0 mm 2 m/s 766 mmHg 75%
    10:00 +16°C° 0 mm 3 m/s 766 mmHg 65%
    11:00 +16°C° 0,2 mm 3 m/s 766 mmHg 71%
    12:00 +16°C° 0,2 mm 3 m/s 765 mmHg 76%
    13:00 +16°C° 0,2 mm 3 m/s 765 mmHg 81%
    14:00 +14°C° 0,7 mm 3 m/s 765 mmHg 86%
    15:00 +14°C° 0,7 mm 2 m/s 765 mmHg 91%
    16:00 +13°C° 0,7 mm 2 m/s 765 mmHg 97%
    17:00 +12°C° 0,3 mm 2 m/s 765 mmHg 97%
    18:00 +12°C° 0,3 mm 2 m/s 765 mmHg 97%
    19:00 +12°C° 0,3 mm 2 m/s 765 mmHg 97%
    20:00 +10°C° 0,5 mm 2 m/s 765 mmHg 97%
    21:00 +10°C° 0,5 mm 2 m/s 765 mmHg 98%
    22:00 +9°C° 0,5 mm 2 m/s 765 mmHg 98%
    23:00 +9°C° 0 mm 2 m/s 764 mmHg 98%

    29 Juin, Jeudi

    Heure Température Précipitation Vent Pression Humidité
    00:00 +8°C° 0 mm 2 m/s 764 mmHg 98%
    01:00 +9°C° 0 mm 1 m/s 763 mmHg 98%
    02:00 +9°C° 0,4 mm 1 m/s 763 mmHg 98%
    03:00 +10°C° 0,4 mm 1 m/s 763 mmHg 97%
    04:00 +10°C° 0,4 mm 1 m/s 762 mmHg 97%
    05:00 +10°C° 0,7 mm 1 m/s 762 mmHg 97%
    06:00 +9°C° 0,7 mm 2 m/s 762 mmHg 97%
    07:00 +9°C° 0,7 mm 2 m/s 763 mmHg 98%
    08:00 +10°C° 0,9 mm 2 m/s 762 mmHg 97%
    09:00 +10°C° 0,9 mm 2 m/s 762 mmHg 97%
    10:00 +12°C° 0,9 mm 2 m/s 762 mmHg 97%
    11:00 +12°C° 0,5 mm 2 m/s 762 mmHg 97%
    12:00 +13°C° 0,5 mm 2 m/s 761 mmHg 96%
    13:00 +12°C° 0,5 mm 3 m/s 760 mmHg 96%
    14:00 +12°C° 0,5 mm 3 m/s 760 mmHg 96%
    15:00 +12°C° 0,5 mm 3 m/s 760 mmHg 97%
    16:00 +12°C° 0,5 mm 4 m/s 760 mmHg 97%
    17:00 +11°C° 0,3 mm 4 m/s 760 mmHg 97%
    18:00 +11°C° 0,3 mm 4 m/s 760 mmHg 98%
    19:00 +11°C° 0,3 mm 4 m/s 761 mmHg 98%
    20:00 +10°C° 1,1 mm 5 m/s 761 mmHg 98%
    21:00 +10°C° 1,1 mm 6 m/s 761 mmHg 97%
    22:00 +9°C° 1,1 mm 6 m/s 761 mmHg 97%
    23:00 +9°C° 0,8 mm 6 m/s 761 mmHg 97%

    30 Juin, Vendredi

    Heure Température Précipitation Vent Pression Humidité
    00:00 +9°C° 0,8 mm 6 m/s 761 mmHg 96%
    01:00 +8°C° 0,8 mm 6 m/s 761 mmHg 96%
    02:00 +8°C° 0,2 mm 6 m/s 762 mmHg 95%
    03:00 +7°C° 0,2 mm 6 m/s 762 mmHg 94%
    04:00 +6°C° 0,2 mm 7 m/s 762 mmHg 93%
    05:00 +6°C° 0,1 mm 7 m/s 763 mmHg 92%
    06:00 +5°C° 0,1 mm 7 m/s 764 mmHg 90%
    07:00 +5°C° 0,1 mm 7 m/s 765 mmHg 89%
    08:00 +6°C° 0 mm 7 m/s 765 mmHg 83%
    09:00 +9°C° 0 mm 8 m/s 766 mmHg 77%
    10:00 +10°C° 0 mm 8 m/s 766 mmHg 71%
    11:00 +11°C° 0 mm 8 m/s 766 mmHg 66%
    12:00 +11°C° 0 mm 7 m/s 766 mmHg 61%
    13:00 +12°C° 0 mm 7 m/s 766 mmHg 55%
    14:00 +12°C° 0 mm 7 m/s 766 mmHg 58%
    15:00 +11°C° 0 mm 6 m/s 767 mmHg 60%
    16:00 +11°C° 0 mm 6 m/s 767 mmHg 63%
    17:00 +9°C° 0 mm 6 m/s 768 mmHg 67%
    18:00 +8°C° 0 mm 5 m/s 769 mmHg 70%
    19:00 +7°C° 0 mm 5 m/s 769 mmHg 74%
    20:00 +6°C° 0 mm 5 m/s 770 mmHg 75%
    21:00 +6°C° 0 mm 5 m/s 770 mmHg 75%
    22:00 +6°C° 0 mm 4 m/s 770 mmHg 75%
    23:00 +6°C° 0,1 mm 4 m/s 770 mmHg 76%
    Voir plus